TimeAKDT,TemperatureF,Dew PointF,Humidity,Sea Level PressureIn,VisibilityMPH,Wind Direction,Wind SpeedMPH,Gust SpeedMPH,PrecipitationIn,Events,Conditions,WindDirDegrees,DateUTC
12:53 AM,33.1,28.9,85,29.12,10.0,NNE,4.6,-,N/A,,Overcast,20,2013-09-21 08:53:00
1:53 AM,32.0,27.0,82,29.11,10.0,North,3.5,-,N/A,,Overcast,360,2013-09-21 09:53:00
2:17 AM,30.9,26.1,82,29.05,10.0,North,4.6,-,N/A,,Mostly Cloudy,10,2013-09-21 10:17:00
2:27 AM,30.9,26.1,82,29.05,10.0,Calm,Calm,-,N/A,,Mostly Cloudy,0,2013-09-21 10:27:00
2:53 AM,28.9,25.0,85,29.10,10.0,Calm,Calm,-,N/A,,Mostly Cloudy,0,2013-09-21 10:53:00
3:53 AM,27.0,24.1,89,29.10,10.0,Calm,Calm,-,N/A,,Clear,0,2013-09-21 11:53:00
4:53 AM,26.1,24.1,92,29.08,10.0,NNE,4.6,-,N/A,,Clear,20,2013-09-21 12:53:00
5:53 AM,26.1,24.1,92,29.08,10.0,North,4.6,-,N/A,,Mostly Cloudy,360,2013-09-21 13:53:00
6:53 AM,28.9,27.0,92,29.08,10.0,Calm,Calm,-,N/A,,Overcast,0,2013-09-21 14:53:00
7:53 AM,28.9,27.0,92,29.08,10.0,North,4.6,-,N/A,,Overcast,10,2013-09-21 15:53:00
8:53 AM,30.0,27.0,88,29.09,10.0,Calm,Calm,-,N/A,,Clear,0,2013-09-21 16:53:00
9:53 AM,33.1,28.0,82,29.09,10.0,Calm,Calm,-,N/A,,Partly Cloudy,0,2013-09-21 17:53:00
10:53 AM,36.0,28.0,73,29.08,10.0,NW,3.5,-,N/A,,Overcast,320,2013-09-21 18:53:00
11:53 AM,37.0,28.0,70,29.09,10.0,ESE,4.6,-,N/A,,Overcast,110,2013-09-21 19:53:00
12:53 PM,37.9,28.9,70,29.08,10.0,Calm,Calm,-,N/A,,Overcast,0,2013-09-21 20:53:00
1:53 PM,39.0,30.0,70,29.08,10.0,SSE,4.6,-,N/A,,Overcast,150,2013-09-21 21:53:00
2:53 PM,39.9,30.0,68,29.09,10.0,SSW,3.5,-,N/A,,Overcast,210,2013-09-21 22:53:00
3:53 PM,39.9,33.1,77,29.09,10.0,Calm,Calm,-,0.00,Rain,Light Rain,0,2013-09-21 23:53:00
4:53 PM,41.0,32.0,70,29.08,10.0,Variable,3.5,-,0.00,,Overcast,0,2013-09-22 00:53:00
5:53 PM,39.9,32.0,73,29.06,10.0,Variable,3.5,-,0.00,,Overcast,0,2013-09-22 01:53:00
6:53 PM,39.9,33.1,77,29.05,10.0,Calm,Calm,-,N/A,,Overcast,0,2013-09-22 02:53:00
7:53 PM,37.9,34.0,86,29.04,10.0,Calm,Calm,-,N/A,,Overcast,0,2013-09-22 03:53:00
8:53 PM,37.0,33.1,86,29.03,10.0,WNW,4.6,-,N/A,,Overcast,300,2013-09-22 04:53:00
9:53 PM,37.0,32.0,82,29.00,10.0,WNW,4.6,-,N/A,,Overcast,300,2013-09-22 05:53:00
10:53 PM,39.0,32.0,76,28.98,10.0,NW,8.1,-,N/A,,Overcast,320,2013-09-22 06:53:00
11:53 PM,39.0,30.9,73,28.96,10.0,NNW,6.9,-,N/A,,Overcast,330,2013-09-22 07:53:00